780  
ASUS46 KPDT 240204  
RWRPDT  
PENDLETON REGIONAL WEATHER ROUNDUP  
NATIONAL WEATHER SERVICE PENDLETON OREGON  
700 PM PDT THU MAR 23 2017  
 
NOTE: FAIR INDICATES FEW OR NO CLOUDS BELOW 12,000 FEET WITH NO  
SIGNIFICANT WEATHER AND/OR S TO VISIBILITY
.  
 
# INDICATES UNOFFICIAL STATION AND DATA  
 
WAZ520-240310-  
EAST SLOPES OF WASHINGTON CASCADES  
 
CITY SKY/WX TMP DP RH WIND PRES REMARKS
 
#CLE ELUM HS N/A 48 28 46 S5 29.89F  
#CLE ELUM LAKE N/A 42 29 60 CALM 29.94F  
#GLENWOOD N/A 48 37 65 N1 29.94F  
#NELSON 3SW N/A 34 31 89 CALM 30.18S  
#NILE N/A 46 32 58 E2 29.24S  
#TEANAWAY 4NE N/A 47 32 56 CALM N/A  
#TROUT LAKE 1NE N/A 46 35 65 CALM 29.95F  
#TROUT LAKE 1E N/A 45 35 68 CALM 29.94F  

 
 
WAZ521-240310-  
SIMCOE HIGHLANDS  
 
CITY SKY/WX TMP DP RH WIND PRES REMARKS
 
#BICKLETON HS N/A 45 35 68 SE3 30.00F  
#CENTERVILLE 1SWN/A 49 37 63 CALM 29.91F  
#GOLDENDALE 1NE N/A 51 23 33 NE3 N/A  
#GOLDENDALE 4W N/A 50 10 19 E5 29.95F  
#GOODNOE HILLS N/A 52 32 46 E6 29.84F  
#LYLE 6NE N/A 50 38 63 NE1 29.91F  
#PITT 4SE N/A 46 35 65 E2 29.98F  

 
 
WAZ026-240310-  
KITTITAS VALLEY  
 
CITY SKY/WX TMP DP RH WIND PRES REMARKS
 
ELLENSBURG AP PTCLDY 49 30 48 MISG 29.95S  
#ELLENSBURG CWU N/A 50 31 48 SE6 29.91F  
#ELLENSBURG 3NE N/A 47 33 58 N3 28.03F  
#ELLENSBURG 1E N/A 50 N/A N/A E1 N/A  
#ELLENSBURG 13S N/A 52 28 39 CALM N/A  
#KITTITAS 4N N/A 46 32 58 W3 29.98S  
#KITTITAS 3S N/A 49 34 56 S5 29.96F  
#THORP 6N N/A 45 31 58 SE9 30.00F  

 
 
WAZ027-240310-  
YAKIMA VALLEY  
 
CITY SKY/WX TMP DP RH WIND PRES REMARKS
 
SUNNYSIDE AP PTCLDY 51 33 50 NE6 29.95F  
YAKIMA AIRPORT MOCLDY 54 32 43 VRB3 29.96F  
#DONALD 2NE N/A 56 0 10 SE12 28.91S  
#GRANDVIEW N/A 54 31 41 E2 29.98F  
#MABTON N/A 55 38 53 E2 29.94F  
#MOXEE 2E N/A 51 0 12 E3 29.91F  
#NACHES 2SW N/A 49 34 56 SE2 30.00S  
#TERRACE HTS N/A 51 34 52 CALM 29.95F  
#TOPPENISH N/A 54 34 47 CALM 29.88F  
#WEST VALLEY N/A 51 33 50 E1 29.96F  
#W YAKIMA N/A 51 33 50 E1 29.98F  
#WHITE SWAN 5E N/A 51 38 61 CALM 29.97S  
#WILEY CITY 3W N/A 50 29 44 CALM 29.93S  

 
 
WAZ028-240310-  
LOWER COLUMBIA BASIN...WASHINGTON  
 
CITY SKY/WX TMP DP RH WIND PRES REMARKS
 
PASCO PTCLDY 53 34 48 NE8 29.98F  
PROSSER AWOS N/A 55 34 45 E9 29.99F  
RICHLAND AWOS PTCLDY 56 35 45 NE7 29.98F  
#BENTON CITY N/A 53 34 48 CALM 29.89F  
#CONNELL 5N N/A 49 36 61 NE1 30.02F  
#CONNELL 5NW N/A 50 36 58 CALM 29.96F  
#ELTOPIA 6NW N/A 52 38 59 CALM 28.96F  
#KAHLOTUS N/A 51 31 46 CALM 30.01F  
#KENNEWICK 3S N/A 54 37 52 CALM 29.99F  
#PATERSON N/A 56 36 47 SE2 29.94F  
#SAGEMOOR 2W N/A 51 36 56 CALM 29.85F  
#TOUCHET 2S N/A 53 42 66 CALM 29.97F  
#WEST PASCO N/A 55 36 49 NE2 29.98F  

 
 
WAZ029-240310-  
FOOTHILLS OF THE BLUES...WASHINGTON  
 
CITY SKY/WX TMP DP RH WIND PRES REMARKS
 
WALLA WALLA AP CLEAR 50 37 61 NE10 29.98F  
#CLYDE 6NW N/A 51 33 50 CALM 30.00F  
#DAYTON SCHOOL N/A 51 28 41 N2 30.02F  
#LOWDEN 2SE N/A 53 40 61 E1 29.95F  
#PLEASANT VIEW 1N/A 48 32 54 N3 30.06F  
#PRESCOTT N/A 51 39 63 CALM 29.99F  
#WHITMAN COLLEGEN/A 54 35 48 N3 30.03F  
#WAITSBURG 5S N/A 48 34 58 NE2 30.10F  
#WAITSBURG 8N N/A 47 N/A N/A N6 29.93F  
#WALLA WALLA 5E N/A 50 39 66 N5 N/A  
#WHITMAN MISSIONN/A 55 38 53 CALM 29.99F  

 
 
WAZ030-240310-  
BLUE MOUNTAINS...WASHINGTON  
 
CITY SKY/WX TMP DP RH WIND PRES REMARKS
 
#DIXIE 5SE N/A 38 28 67 S12 29.91F WCI 30  

 
 
ORZ009-041-WAZ024-240310-  
COLUMBIA RIVER GORGE  
 
CITY SKY/WX TMP DP RH WIND PRES REMARKS
 
HOOD RIVER AP CLOUDY 55 32 41 CALM 29.93F  
THE DALLES AP CLOUDY 54 39 57 CALM 29.92F  
#ARLINGTON AIRPON/A 51 38 61 E5 29.97F  
#ARLINGTON HS N/A 55 36 49 N8 29.86F  
#CELILO DOT N/A 56 30 37 E2 N/A  
#LYLE N/A 56 37 49 CALM 29.93F  
#MOSIER 1S N/A 52 28 39 CALM 29.91F  
#MURDOCK N/A 55 37 51 CALM 29.90S  
#RUFUS DOT N/A 57 34 42 SE9 N/A  
#SMITHVILLE N/A 55 38 53 CALM 29.88F  
 

 
 
ORZ510-240310-  
NORTH CENTRAL OREGON  
 
CITY SKY/WX TMP DP RH WIND PRES REMARKS
 
#ANTELOPE N/A 51 34 52 N3 29.82F  
#CHENOWITH 1W N/A 49 33 54 E3 N/A  
#COW CYN RST AREN/A 51 27 39 N2 N/A  
#DUFUR N/A 50 37 61 N1 29.90F  
#DUFUR 9E N/A 47 35 63 E14 30.00F WCI 41  
#GRASS VALLEY 1SN/A 47 37 68 E5 30.06F  
#KENT DOT N/A 50 23 34 N8 N/A  
#MAUPIN SCHOOL N/A 56 32 40 CALM 29.94F  
#MORO SCHOOL N/A 49 40 71 N7 30.00S  
#SHANIKO 5WSW N/A 49 20 31 N6 N/A  
#SHANIKO 4NW N/A 47 27 45 NE5 29.91F  
#TYGH VALLEY 2NEN/A 53 38 57 N10 29.91S  
#WAPANITIA AIRPON/A 52 34 50 CALM 29.95S  
#WASCO 5NE N/A 51 36 56 E1 29.95F  

 
 
ORZ511-240310-  
CENTRAL OREGON  
 
CITY SKY/WX TMP DP RH WIND PRES REMARKS
 
BEND AIRPORT CLOUDY 52 19 27 S13 29.90F  
MADRAS AIRPORT CLOUDY 52 28 39 N6 29.91F  
PRINEVILLE AP CLOUDY 54 21 27 SW6 29.89F  
REDMOND AIRPORT CLOUDY 55 16 21 S13 29.90S  
#ASHWOOD SCHOOL N/A 53 30 41 CALM 29.85F  
#BEND 1SW N/A 49 28 44 SW1 N/A  
#BEND-AWBREY N/A 51 27 39 S5 29.94S  
#BEND-KIM LN N/A 53 27 36 S3 29.89F  
#CULVER N/A 52 33 48 CALM 29.85F  
#CULVER 8W N/A 52 34 50 CALM 29.91S  
#LAKE BILLY CHINN/A 52 N/A N/A E3 29.98S  
#POWELL BUTTE N/A 53 15 22 SW3 29.87F  
#PRINEVILLE N/A 55 18 23 S1 30.01S  
#PRINEVILLE 3N N/A 54 24 31 W3 29.92F  
#WARM SPRINGS N/A 57 34 42 CALM 29.85F  
 

 
 
 
ORZ509-240310-  
EAST SLOPES OF OREGON CASCADES  
 
CITY SKY/WX TMP DP RH WIND PRES REMARKS
 
SISTERS AWOS N/A 52 28 39 CALM 29.88S  
#BLUE BOX PASS N/A 42 N/A N/A N2 N/A  
#CAMP SHERMAN N/A 49 37 63 CALM 30.01S  
#LA PINE 4SW N/A 48 21 34 SE8 29.94S  
#LA PINE 4NW N/A 47 26 44 SW3 30.02F  
#LAVA BUTTE DOT N/A 46 14 27 SE1 N/A  
#SISTERS 3N N/A 49 27 42 CALM 29.91S  
#SUNRIVER N/A 48 25 40 S2 29.98F  
#TUMALO 3W N/A 51 24 34 S7 29.83S  
#WANOGA BUTTE D N/A 38 20 48 W8 N/A  
 

 
 
ORZ044-240310-  
LOWER COLUMBIA BASIN...OREGON  
 
CITY SKY/WX TMP DP RH WIND PRES REMARKS
 
HERMISTON PTCLDY 53 38 57 NE12 29.95F  
#BOARDMAN SCHOOLN/A 56 37 49 N3 29.94F  
#BOARDMAN 8SW N/A 55 40 57 NE6 29.94F  
#ECHO 8SW N/A 54 37 52 NE1 29.96F  
#I-84 EX 198 DOTN/A 55 32 41 N3 N/A  
#IONE SCHOOL N/A 55 37 51 N1 29.95F  
#UMATILLA N/A 57 36 45 NE1 29.90F  

 
 
ORZ507-240310-  
NORTHERN FOOTHILLS OF THE BLUES  
 
CITY SKY/WX TMP DP RH WIND PRES REMARKS
 
PENDLETON AIRPT PTCLDY 49 38 66 E13 29.95F WCI 44  
#ADAMS 3WNW N/A 49 38 66 NE7 29.98F  
#ATHENA N/A 49 36 61 NE5 30.01F  
#CAYUSE N/A 50 39 66 NE7 29.96F  
#HELIX SCHOOL N/A 49 35 58 N8 29.98F  
#HELIX 3N N/A 46 33 60 NE12 29.93F WCI 40  
#HOLDMAN 5SE N/A 50 38 63 NE5 29.95F  
#HOLDMAN 6E N/A 47 38 71 N8 29.78F  
#M-F FERNDALE N/A 55 33 43 CALM 29.95F  
#M-F GROVE ELEM N/A 54 34 47 CALM 29.96F  
#M-FREEWATER 5SEN/A 54 37 52 CALM 29.97F  
#PENDLETON DNTN N/A 54 30 40 E5 29.95S  
#PDT AQUATIC CTRN/A 53 33 46 NE7 29.84F  
#PDT SUNRIDGE N/A 52 37 56 NE5 29.96F  
#PILOT ROCK 1S N/A 49 33 54 CALM 29.96S  
#PILOT ROCK N/A 50 36 58 N2 29.97S  
#TUTUILLA N/A 51 38 61 E7 29.97F  
#UMAPINE 2E N/A 52 39 61 E2 29.95F  
#WESTON SCHOOL N/A 48 33 56 CALM 29.94S  
 

 
 
ORZ508-240310-  
SOUTHERN FOOTHILLS OF THE BLUES  
 
CITY SKY/WX TMP DP RH WIND PRES REMARKS
 
LEXINGTON PTCLDY 52 37 56 N16 29.95F  
#AJAX N/A 47 29 49 N8 30.07F  
#CONDON SCHOOL N/A 47 37 68 N8 29.87F  
#CONDON 5W N/A 44 33 65 NE7 29.88F  
#FOSSIL SCHOOL N/A 54 31 41 SE1 29.84F  
#HEPPNER EOC N/A 52 36 54 N8 29.87F  
#HEPPNER 4NE N/A 47 36 65 E10 29.96F  
#LEXINGTON 2SE N/A 55 38 53 E8 29.88F  
#OLEX 4N N/A 51 38 61 NE7 29.92F  
#RUGGS 5NE N/A 49 33 54 NE8 30.07F  
#RUGGS 2SW N/A 50 37 61 E5 29.97F  
 

 
 
ORZ502-503-240310-  
BLUE MOUNTAINS  
 
CITY SKY/WX TMP DP RH WIND PRES REMARKS
 
MEACHAM CLEAR 41 28 59 CALM 29.96S  
#BATTLE MTN DOT N/A 46 17 31 S7 N/A  
#GREENHORN 9SW N/A 50 N/A N/A SE1 26.16S  
#HARDMAN 10S N/A 45 26 47 SE3 30.11F  
#HEPPNER 15SE N/A 43 31 62 CALM 29.97F  
#LADD CYN SMT N/A 47 26 44 CALM N/A  
#LADD CREEK ODOTN/A 46 28 49 CALM N/A  
#LONG CREEK HS N/A 49 31 50 CALM N/A  
#N POWDER DOT N/A 53 27 36 N1 N/A  
#PIKES PEAK N/A 43 29 57 CALM 27.99S  
#TOLLGATE N/A 37 27 67 CALM 29.84S  
#TROY SCHOOL N/A 49 32 52 CALM 29.85S  
#UKIAH N/A 51 28 41 CALM 29.91F  
#WESTON 4E N/A 47 35 63 CALM 29.98F  

 
 
ORZ505-240310-  
JOHN DAY BASIN  
 
CITY SKY/WX TMP DP RH WIND PRES REMARKS
 
JOHN DAY CLEAR 51 24 34 CALM 29.97S  
#JOHN DAY KJDY N/A 54 N/A N/A CALM 29.33F  
#ANTELOPE 9ESE N/A 58 29 33 NW1 N/A  
#DAYVILLE SCHOOLN/A 55 22 27 CALM 29.89F  
#MITCHELL N/A 55 30 38 CALM 30.06F  
#MITCHELL 8NW N/A 52 21 29 E1 29.76F  
#MONUMENT HS N/A 57 29 34 E1 29.89S  
#MT. VERNON 5SE N/A 49 25 39 SE1 29.91S  
#SPRAY SCHOOL N/A 58 N/A N/A CALM N/A  
#WINLOCK N/A 50 34 54 SW2 29.88F  

 
 
ORZ506-240310-  
OCHOCO AND JOHN DAY HIGHLANDS  
 
CITY SKY/WX TMP DP RH WIND PRES REMARKS
 
#HORSE RIDGE DO N/A 51 17 26 S12 N/A  
#PAULINA SCHOOL N/A 52 21 29 S6 N/A  
#PINE MTN OBS N/A 38 22 52 SE17G29 N/A WCI 29  
#PRAIRIE CITY N/A 53 26 35 CALM 30.11F  
#SENECA N/A 46 N/A N/A N6 N/A  
#SENECA 9NW N/A 44 27 51 CALM 30.03S  

 
 
ORZ049-240310-  
GRANDE RONDE VALLEY  
 
CITY SKY/WX TMP DP RH WIND PRES REMARKS
 
LA GRANDE CLEAR 48 30 49 W5 29.97F  
#COVE N/A 51 31 46 CALM 30.01S  
#COVE SCHOOL N/A 50 27 41 CALM 29.99F  
#COVE 6NW N/A 51 31 46 CALM 30.02F  
#ELGIN 3N N/A 50 30 46 CALM 29.96S  
#ELGIN 1E N/A 53 31 43 CALM N/A  
#IMBLER SCHOOL N/A 49 36 61 CALM 29.94F  
#ISLAND CITY 4N N/A 49 43 80 S2 29.93R  
#LADD CYN DOT N/A 48 28 46 SW5 N/A  
#UNION 1S N/A 49 31 50 CALM 30.02F  

 
 
ORZ050-240310-  
WALLOWA COUNTY  
 
CITY SKY/WX TMP DP RH WIND PRES REMARKS
 
#IMNAHA SCHOOL N/A 50 30 46 NW1 29.98S  
#IMNAHA 10S N/A 48 30 49 CALM 29.97R  
#JOSEPH 3N N/A 43 27 53 CALM 30.02R  
#JOSEPH 3W N/A 34 29 82 SW3 29.84S  
#LOSTINE N/A 43 33 67 S1 29.84F  
#LOSTINE 3SE N/A 44 31 60 CALM 30.03F  
#MT HOWARD 8000 N/A 29 16 58 SW1 29.96S  
#PROMISE 1S N/A 44 27 51 CALM 30.13S  
#WALLOWA SCHOOL N/A 50 35 56 CALM 29.96S  
 

 
 
CLICK HERE TO GO TO PREVIOUS BULLETINS.

The Nexlab OR Page
The Nexlab WA Page Main Text Page